Regional Weather Roundup
Issued by NWS New Orleans/Baton Rouge, LA

Home | Current Version | Previous Version | Text Only | Print | Product List | Glossary On
Versions: 1 2 3 4 5 6 7 8 9 10 11 12 13 14 15 16 17 18 19 20 21 22 23 24 25 26 27 28 29 30 31 32 33 34 35 36 37 38 39 40 41 42 43 44 45 46 47 48 49 50
679
ASUS44 KLIX 231312
RWRLIX
NEW ORLEANS REGIONAL WEATHER ROUNDUP
NATIONAL WEATHER SERVICE NEW ORLEANS LA
800 AM CDT SUN APR 23 2017

NOTE: "FAIR" INDICATES FEW OR NO CLOUDS BELOW 12,000 FEET WITH NO
      SIGNIFICANT WEATHER AND/OR OBSTRUCTIONS TO VISIBILITY.
      SKY/WX - SKY CONDITION AND SIGNIFICANT WEATHER.
      TMP - AIR TEMPERATURE.     DP    - DEWPOINT TEMPERATURE.
      RH  - RELATIVE HUMIDITY.   PRES  - PRESSURE.
      HI  - HEAT INDEX.          WCI   - WIND CHILL INDEX.

*  THESE STATIONS ARE NOT NWS OR FAA STATIONS AND ARE NOT UNDER
   NWS QUALITY CONTROL.

LAZ038-040-048-061>063-065>067-069-231400-
SOUTHEAST LOUISIANA

CITY           SKY/WX    TMP DP  RH WIND       PRES   REMARKS
N.O. INTL ARPT CLOUDY    64  58  80 NW12      29.93R
N.O. LAKEFRONT CLOUDY    66  59  78 NW18      29.93R
N.O. DOWNTOWN*   N/A     66  56  70 VRB5        N/A
RESERVE*       NOT AVBL
SLIDELL        CLOUDY    61  59  93 NW5       29.91R
BATON ROUGE    CLOUDY    59  54  83 NW7       29.96R
BOOTHVILLE     CLOUDY    68  65  90 NW10      29.91R
BELLE CHASSE   CLOUDY    64  58  80 VRB5      29.91R
BOGALUSA*      NOT AVBL
GALLIANO*      CLOUDY    64  59  83 NW10      29.93R
NEW ROADS*     CLOUDY    55  52  89 NW9       29.99R
GONZALES*      CLOUDY    59  57  92 W3        29.95R
HAMMOND*       CLOUDY    61  55  82 NW8       29.93S
HOUMA*         CLOUDY    61  59  94 NW9       29.95R
PORT FOURCHON* CLOUDY    68  61  77 N10       29.92S

$$

MSZ070-080>082-231400-
SOUTHERN MISSISSIPPI

CITY           SKY/WX    TMP DP  RH WIND       PRES   REMARKS
MCCOMB         LGT RAIN  56  53  90 NW14      29.95R FOG
GULFPORT       CLOUDY    63  57  81 N13       29.89R
BILOXI         CLOUDY    62  58  85 NW6       29.88S
PASCAGOULA     CLOUDY    62  56  80 NW9       29.88R
STENNIS ARPT*  CLOUDY    61  54  77 N7        29.91R

$$

COASTAL OBSERVATIONS
LAKE AND NEARSHORE STATIONS

STATION/POSITION TIME  TEMP    WIND        PRES    WAVE
                       AIR SEA DIR/SP/G            HT/PER
                 (UTC) (F)     (DEG/KT/KT) (MB)    (FT/S)
PASCAGOULA       1242   63     330/ 14/ 20 1011.1
WAVELAND YACHT   1242   62 76  340/ 11/ 14 1012.2
GRAND ISLE       1242   68 77  340/  9/ 16 1012.6
SOUTHWEST PASS   1236          350/ 13/ 15   N/A
NEW CANAL        1242   66 75  340/  5/ 15 1013.1
SHELL BEACH      1242   65 78  330/ 15/ 19 1012.8

OFFSHORE STATIONS

STATION/POSITION TIME  TEMP    WIND        PRES    WAVE
                       AIR SEA DIR/SP/G            HT/PER
                 (UTC) (F)     (DEG/KT/KT) (MB)    (FT/S)
64 S DAUPHIN ISL 1240   75 77  230/ 14/ 16 1011.0

$$





USA.gov is the U.S. government's official web portal to all federal, state and local government web resources and services.